This is the latest recevied weather packets stored in our database for station/object KQ4OSL. If no packets are shown the sender has not sent any weather packets the latest 10 day(s).
| Time | Temp. | Humidity | Pressure | Rain* | Wind** | Luminosity | Snow |
|---|---|---|---|---|---|---|---|
| 1777868612 | 6.67° C | 95% | 1020.4 hPa | 0 mm | - | 0 W/m² | - |
| 1777868308 | 6.67° C | 95% | 1020.5 hPa | 0 mm | - | 0 W/m² | - |
| 1777868004 | 7.22° C | 94% | 1020.8 hPa | 0 mm | - | 0 W/m² | - |
| 1777867701 | 7.22° C | 94% | 1020.5 hPa | 0 mm | - | 0 W/m² | - |
| 1777867399 | 7.22° C | 94% | 1020.5 hPa | 0 mm | - | 0 W/m² | - |
| 1777867094 | 7.78° C | 93% | 1020.5 hPa | 0 mm | - | 0 W/m² | - |
| 1777866792 | 8.33° C | 93% | 1020.7 hPa | 0 mm | - | 0 W/m² | - |
| 1777866489 | 7.78° C | 92% | 1020.6 hPa | 0 mm | - | 0 W/m² | - |
| 1777866186 | 7.78° C | 91% | 1020.5 hPa | 0 mm | - | 0 W/m² | - |
| 1777865883 | 8.33° C | 91% | 1020.5 hPa | 0 mm | - | 0 W/m² | - |
| 1777865581 | 7.78° C | 91% | 1020.5 hPa | 0 mm | - | 0 W/m² | - |
| 1777865277 | 8.33° C | 90% | 1020.5 hPa | 0 mm | - | 0 W/m² | - |
| 1777864975 | 8.33° C | 90% | 1020.3 hPa | 0 mm | - | 0 W/m² | - |
| 1777864671 | 8.33° C | 90% | 1020.7 hPa | 0 mm | - | 0 W/m² | - |
| 1777864369 | 8.33° C | 89% | 1020.5 hPa | 0 mm | - | 0 W/m² | - |
| 1777864064 | 8.89° C | 88% | 1020.5 hPa | 0 mm | - | 0 W/m² | - |
| 1777863762 | 8.89° C | 87% | 1020.6 hPa | 0 mm | - | 0 W/m² | - |
| 1777863458 | 8.89° C | 86% | 1020.5 hPa | 0 mm | - | 0 W/m² | - |
| 1777863155 | 9.44° C | 85% | 1020.5 hPa | 0 mm | - | 0 W/m² | - |
| 1777862852 | 10° C | 84% | 1020.3 hPa | 0 mm | - | 0 W/m² | - |
| 1777862549 | 9.44° C | 83% | 1020.4 hPa | 0 mm | - | 0 W/m² | - |
| 1777862246 | 9.44° C | 84% | 1020.5 hPa | 0 mm | - | 0 W/m² | - |
| 1777861941 | 9.44° C | 85% | 1020.4 hPa | 0 mm | - | 0 W/m² | - |
| 1777861638 | 9.44° C | 86% | 1020.2 hPa | 0 mm | - | 0 W/m² | - |
| 1777861334 | 9.44° C | 86% | 1020.2 hPa | 0 mm | - | 0 W/m² | - |
* Rain latest hour (hover to see other rain measurements)
** Current wind speed in m/s (hover to see current wind gust speed)